Weather History for Wilmington, NC

Change the Weather History Date:

Sunday, December 25, 2011

  Actual Average Record
Temperature  
Mean Temperature 50 °F 47 °F  
Max Temperature 61 °F 57 °F 77 °F (1955)
Min Temperature 38 °F 36 °F 0 °F (1989)
Degree Days  
Heating Degree Days 15 18  
Month to date heating degree days 289 399  
Since 1 July heating degree days 616 768  
Cooling Degree Days 0 0  
Month to date cooling degree days 7 0  
Year to date cooling degree days 2343 2037  
Moisture  
Dew Point 43 °F    
Average Humidity 76    
Maximum Humidity 100    
Minimum Humidity 51    
Precipitation  
Precipitation 0.02 in 0.12 in 2.26 in (2006)
Month to date precipitation 0.09 2.95  
Year to date precipitation 43.46 56.94  
Snow  
Snow 0.00 in 0.00 in T in (1948)
Month to date snowfall 0.0 0.6  
Since 1 July snowfall 0.0 0.6  
Snow Depth 0.00 in    
Sea Level Pressure  
Sea Level Pressure 30.31 in    
Wind  
Wind Speed 4 mph (WSW)    
Max Wind Speed 12 mph    
Max Gust Speed 15 mph    
Visibility 10 miles    
Events Rain    
T = Trace of Precipitation, MM = Missing Value Source: NWS Daily Summary

Daily Weather History Graph

Daily Weather History Graph

Search for Another Location

Airport:

Trip Planner

Search our weather history database for the weather conditions in past years. The results will help you decide how hot, cold, wet, or windy it might be!

Date:

Astronomy

Dec. 25, 2011 Rise Set
Actual Time 7:15 AM EST 5:07 PM EST
Civil Twilight 6:47 AM EST 5:35 PM EST
Nautical Twilight 6:16 AM EST 6:07 PM EST
Astronomical Twilight 5:45 AM EST 6:37 PM EST
Moon 7:53 AM EST (12/25) 6:23 PM EST (12/25)
Length of Visible Light 10h 48m
Length of Day
9h 52m
New Moon, 1% of the Moon is Illuminated
Dec 25
New Moon
Jan 1
First Quarter
Jan 9
Full
Jan 16
Last Quarter
Jan 23
New

Hourly Weather History & Observations

Time (EST) Temp. Windchill Dew Point Humidity Pressure Visibility Wind Dir Wind Speed Gust Speed Precip Events Conditions
12:53 AM 41.0 °F - 35.1 °F 79% 30.40 in 10.0 mi Calm Calm - N/A   Clear
1:53 AM 39.9 °F - 35.1 °F 83% 30.39 in 10.0 mi Calm Calm - N/A   Clear
2:53 AM 39.0 °F - 35.1 °F 86% 30.39 in 10.0 mi Calm Calm - N/A   Clear
3:53 AM 39.0 °F 35.7 °F 36.0 °F 89% 30.39 in 10.0 mi NNE 4.6 mph - N/A   Clear
4:53 AM 39.9 °F - 37.0 °F 89% 30.39 in 10.0 mi Calm Calm - N/A   Clear
5:53 AM 37.9 °F 35.5 °F 37.0 °F 97% 30.39 in 9.0 mi NE 3.5 mph - N/A   Clear
6:53 AM 39.9 °F - 37.9 °F 93% 30.39 in 10.0 mi Calm Calm - N/A   Clear
7:53 AM 42.1 °F 40.2 °F 39.0 °F 89% 30.40 in 10.0 mi NNE 3.5 mph - N/A   Clear
8:53 AM 46.0 °F - 41.0 °F 83% 30.40 in 10.0 mi Calm Calm - N/A   Clear
9:53 AM 53.1 °F - 41.0 °F 64% 30.40 in 10.0 mi Calm Calm - N/A   Clear
10:53 AM 57.9 °F - 43.0 °F 58% 30.36 in 10.0 mi Calm Calm - N/A   Clear
11:53 AM 59.0 °F - 45.0 °F 60% 30.33 in 10.0 mi SSE 3.5 mph - N/A   Clear
12:53 PM 60.1 °F - 45.0 °F 57% 30.29 in 10.0 mi SSE 3.5 mph - N/A   Clear
1:53 PM 60.1 °F - 45.0 °F 57% 30.27 in 10.0 mi West 4.6 mph - N/A   Mostly Cloudy
2:53 PM 61.0 °F - 43.0 °F 52% 30.26 in 10.0 mi West 8.1 mph - N/A   Clear
3:53 PM 60.1 °F - 46.0 °F 60% 30.25 in 10.0 mi WSW 8.1 mph - N/A   Mostly Cloudy
4:53 PM 57.0 °F - 45.0 °F 64% 30.23 in 10.0 mi SW 5.8 mph - N/A   Scattered Clouds
5:53 PM 55.4 °F - 48.2 °F 77% 30.23 in 10.0 mi SW 5.8 mph - N/A Rain Light Rain
6:53 PM 54.0 °F - 48.9 °F 83% 30.21 in 10.0 mi SW 9.2 mph - 0.00 in Rain Light Rain
7:53 PM 54.0 °F - 48.9 °F 83% 30.21 in 10.0 mi WSW 6.9 mph - 0.00 in   Scattered Clouds
8:53 PM 53.6 °F - 48.2 °F 82% 30.18 in 10.0 mi SW 8.1 mph - N/A Rain Light Rain
9:53 PM 52.0 °F - 48.9 °F 89% 30.20 in 10.0 mi West 5.8 mph - 0.01 in Rain Light Rain
10:53 PM 51.8 °F - 48.2 °F 88% 30.20 in 10.0 mi West 10.4 mph - N/A   Mostly Cloudy
11:53 PM 51.8 °F - 48.2 °F 88% 30.18 in 10.0 mi WSW 10.4 mph - N/A   Clear